Location: Wiler
(46.4041°N, 7.7840°E)
Time: 10:56:54
(UTC+00:00)

ERS-1 Rocket - Pass Details

Date: 09 April 2020
Orbit: 753 x 757 km, 98.5° (Epoch: 25 May)

Event Time Altitude Azimuth Distance (km) Brightness Sun altitude
Exits shadow 20:46:59 67° 90° (E) 822 2.9 -24.6°
Maximum altitude 20:47:12 68° 73° (ENE) 817 2.9 -24.6°
Drops below altitude 10° 20:52:12 10° 351° (N) 2,292 6.2 -25.2°
Sets 20:54:31 0° 349° (N) 3,220 7.1 -25.5°
